User: anonymous   Login
Location: Unspecified
(0.0000°N, 0.0000°E)
Time: 03:35:54
(UTC+01:00)
Language:

Cosmos 1782 Rocket - Orbit

View from above orbital plane
View from above orbital plane
View from above satellite
View from above satellite

Ground track
Ground track

The orbit data is extracted from the following two-line orbital elements,

1 16987U 86074B   14303.68461139  .00000483  00000-0  57039-4 0  5051
2 16987 082.5139 129.7627 0018753 179.7409 232.2510 14.82509153516135
Epoch (UTC): 30 October 2014 16:25:50
Eccentricity: 0.0018753
inclination: 82.5139°
perigee height: 608 km
apogee height: 634 km
right ascension of ascending node: 129.7627°
argument of perigee: 179.7409°
revolutions per day: 14.82509153
mean anomaly at epoch: 232.2510°
orbit number at epoch: 51613

The dashed part of the orbit path shows where the satellite is in the earth's shadow,  

DLR